Kaldármelar Airport

Jump to: basic info | weather | comments

Related pages: nearby airports | nearby navaids | notams | map

Basic information (top)

Codes: BIKA
Location: lon 64.778900, lat -22.256901, elev 160 ft / 49 m msl
Status: small_airport

Weather (top)

Current conditions for Reykjavik Airport 40nm (74km) SSE (rec'd 2014/09/18 17:00Z):

BIRK 181700Z 26003KT 9999 -DZ FEW023 SCT035 BKN050 12/09 Q1013

Airport forecast for Reykjavik Airport 40nm (74km) SSE (rec'd 2014/09/18 15:34Z):

TAF BIRK 181331Z 1815/1915 09008KT 9999 RA FEW020 BKN035 TX12/1815Z TN09/1906Z 
      TEMPO 1815/1912 5000 RADZ BR BKN015 OVC025 
      BECMG 1910/1912 27015KT

Latest comments (top)

No comments yet for Kaldármelar Airport

More... (top)

See also NOTAMs and nearby airports and navaids, or visit the Kaldármelar Airport page at the main OurAirports website..